VIASAT 1

导读 | 星芒AI

VIASAT 1 是一颗由波音公司制造的高容量通信卫星,于2012年发射,由ViaSat公司运营。该卫星主要提供北美地区的高速宽带互联网服务,特别适用于航空、航海和偏远地区的网络连接。VIASAT 1 采用Ku频段和Ka频段,具备先进的星上处理能力,可实现更高的数据传输速率和更灵活的带宽分配。它在提升卫星互联网服务质量方面发挥了重要作用,并为后续高通量卫星技术的发展奠定了基础。

基本信息
目录编号:
37843
目录名称:
VIASAT 1
国际标识:
2011-059A
轨道中心:
EARTH
卫星名称:
VIASAT 1
卫星全名:
--
卫星状态:
在轨 (已飞行5127 天)
发射日期:
2011-10-19 UTC
国别 :
美国 (US)
星等 :
--
轨道信息
数据来源 国际轨道数据 AOE轨道数据
星历时间 2025-10-31T22:08:03+0800
13小时前
查看轨道信息
2025-10-31T12:00:00+0800
23小时前
查看轨道信息
半长轴 42164.168km 42164.672km
偏心率 0.0002166 0.0002021
轨道倾角 0.017° 0.013°
近地点辐角 319.172° 327.286°
升交点赤经 256.323° 246.418°
平近点角 281.556° 130.915°
近地点 35776.9km 35778.015km
远地点 35795.166km 35795.059km
周期 1436.068分钟 1436.094分钟
每日圈数 1.002738 1.00272
详细信息
使用方式:
暂无
2D轨道图
3D轨道图
轨道高度分析图
轨道倾角分析图
轨道综合分析图
查看轨道综合分析图